Starlink 33865

operational
NORAD ID: 64247 Int'l Des: 2025-119 Owner: SPXS Country: US Constellation: starlink
LEOCIRCULAR

About Starlink 33865

Description loading...

Live Position

Loading 3D Globe...

Upcoming Passes

Altitude History

Altitude vs Time

uPlot chart will show altitude changes over time

Two-Line Element Set

1 64247U 25119Q 26095.50406150 .00016458 00000-0 60640-3 0 9997
2 64247 42.9988 155.3186 0001739 268.8151 91.2501 15.27571810 48248
Epoch: Apr 5, 2026 • Age: 5 hours

Current Status

Altitude 482.6 km
Velocity 7.63 km/s
Sub-Earth Point 16.11°N, 84.48°E
Launch Date Jun 3, 2025
Age 0.8 years
Type internet

Technical Details

Classification Payload
Mass 575.00 kg
Dry Mass 530.00 kg
Total Mass 575.00 kg
Length 0.30 m
Diameter 4.10 m
Span 29.00 m
Shape Box + pan
Manufacturer SPXS
Bus Type Starlink V2MO
Phase Status In Orbit
Owner/State SPXS/US

Large Constellations

Loading constellations...